• In Romania
  • List of Countries
  • For 7 days
  • Water Temperature
  • Satellite Maps
  • Weather Map
  • Weather Widgets
  • user-avatar
    Login

    Hourly Weather Solden

    Today, 20 August, Sunday

    Time Temperature Precipitation Wind Pressure Humidity
    00:00 +4°C° 0.1 mm 2 mps 584 mmHg 93%
    01:00 +4°C° 0.1 mm 2 mps 584 mmHg 92%
    02:00 +3°C° 0 mm 2 mps 584 mmHg 92%
    03:00 +3°C° 0 mm 2 mps 584 mmHg 92%
    04:00 +2°C° 0 mm 2 mps 584 mmHg 91%
    05:00 +3°C° 0 mm 2 mps 584 mmHg 89%
    06:00 +3°C° 0 mm 2 mps 585 mmHg 86%
    07:00 +4°C° 0 mm 2 mps 585 mmHg 84%
    08:00 +6°C° 0 mm 2 mps 586 mmHg 74%
    09:00 +8°C° 0 mm 2 mps 587 mmHg 64%
    10:00 +9°C° 0 mm 2 mps 588 mmHg 54%
    11:00 +12°C° 0 mm 2 mps 589 mmHg 49%
    12:00 +13°C° 0 mm 2 mps 589 mmHg 44%
    13:00 +14°C° 0 mm 2 mps 590 mmHg 40%
    14:00 +14°C° 0 mm 2 mps 590 mmHg 40%
    15:00 +14°C° 0 mm 2 mps 590 mmHg 41%
    16:00 +14°C° 0 mm 2 mps 589 mmHg 42%
    17:00 +12°C° 0 mm 2 mps 589 mmHg 51%
    18:00 +9°C° 0 mm 2 mps 588 mmHg 61%
    19:00 +8°C° 0 mm 1 mps 587 mmHg 70%
    20:00 +7°C° 0 mm 1 mps 587 mmHg 75%
    21:00 +6°C° 0 mm 1 mps 587 mmHg 79%
    22:00 +5°C° 0 mm 1 mps 587 mmHg 84%
    23:00 +4°C° 0 mm 1 mps 587 mmHg 85%

    Tomorrow, 21 August, Monday

    Time Temperature Precipitation Wind Pressure Humidity
    00:00 +4°C° 0 mm 1 mps 586 mmHg 85%
    01:00 +3°C° 0 mm 1 mps 586 mmHg 86%
    02:00 +3°C° 0 mm 1 mps 586 mmHg 85%
    03:00 +2°C° 0 mm 1 mps 586 mmHg 84%
    04:00 +2°C° 0 mm 1 mps 585 mmHg 83%
    05:00 +3°C° 0 mm 1 mps 586 mmHg 77%
    06:00 +4°C° 0 mm 1 mps 587 mmHg 71%
    07:00 +5°C° 0 mm 1 mps 587 mmHg 65%
    08:00 +8°C° 0 mm 1 mps 588 mmHg 55%
    09:00 +10°C° 0 mm 1 mps 589 mmHg 45%
    10:00 +13°C° 0 mm 1 mps 591 mmHg 36%
    11:00 +14°C° 0 mm 1 mps 591 mmHg 34%
    12:00 +15°C° 0 mm 2 mps 591 mmHg 32%
    13:00 +16°C° 0 mm 2 mps 591 mmHg 31%
    14:00 +15°C° 0 mm 2 mps 591 mmHg 33%
    15:00 +15°C° 0 mm 2 mps 590 mmHg 36%
    16:00 +15°C° 0 mm 2 mps 590 mmHg 38%
    17:00 +13°C° 0 mm 2 mps 589 mmHg 50%
    18:00 +10°C° 0 mm 2 mps 588 mmHg 61%
    19:00 +8°C° 0 mm 2 mps 587 mmHg 72%
    20:00 +8°C° 0 mm 1 mps 587 mmHg 77%
    21:00 +7°C° 0 mm 1 mps 587 mmHg 81%
    22:00 +6°C° 0 mm 1 mps 587 mmHg 86%
    23:00 +5°C° 0 mm 1 mps 587 mmHg 86%

    Day after tomorrow, 22 August, Tuesday

    Time Temperature Precipitation Wind Pressure Humidity
    00:00 +4°C° 0 mm 1 mps 586 mmHg 86%
    01:00 +4°C° 0 mm 1 mps 586 mmHg 87%
    02:00 +4°C° 0 mm 1 mps 586 mmHg 85%
    03:00 +4°C° 0 mm 1 mps 586 mmHg 84%
    04:00 +4°C° 0 mm 1 mps 585 mmHg 83%
    05:00 +5°C° 0 mm 1 mps 586 mmHg 78%
    06:00 +5°C° 0 mm 0 mps 587 mmHg 73%
    07:00 +7°C° 0 mm 0 mps 588 mmHg 68%
    08:00 +10°C° 0 mm 1 mps 588 mmHg 61%
    09:00 +12°C° 0 mm 1 mps 589 mmHg 54%
    10:00 +14°C° 0 mm 1 mps 590 mmHg 48%
    11:00 +14°C° 0 mm 1 mps 590 mmHg 46%
    12:00 +15°C° 0 mm 2 mps 590 mmHg 44%
    13:00 +16°C° 0 mm 2 mps 590 mmHg 43%
    14:00 +16°C° 0 mm 2 mps 590 mmHg 44%
    15:00 +16°C° 0 mm 2 mps 590 mmHg 46%
    16:00 +16°C° 0 mm 2 mps 590 mmHg 48%
    17:00 +14°C° 0 mm 2 mps 589 mmHg 58%
    18:00 +12°C° 0 mm 2 mps 588 mmHg 69%
    19:00 +10°C° 0 mm 1 mps 587 mmHg 80%
    20:00 +9°C° 0 mm 1 mps 586 mmHg 84%
    21:00 +8°C° 0 mm 1 mps 586 mmHg 87%
    22:00 +6°C° 0 mm 1 mps 586 mmHg 91%
    23:00 +6°C° 0 mm 1 mps 585 mmHg 91%

    23 August, Wednesday

    Time Temperature Precipitation Wind Pressure Humidity
    00:00 +6°C° 0 mm 1 mps 585 mmHg 90%
    01:00 +6°C° 0 mm 1 mps 585 mmHg 90%
    02:00 +6°C° 0 mm 1 mps 585 mmHg 88%
    03:00 +6°C° 0 mm 1 mps 585 mmHg 86%
    04:00 +5°C° 0 mm 1 mps 585 mmHg 84%
    05:00 +7°C° 0 mm 1 mps 585 mmHg 79%
    06:00 +8°C° 0 mm 1 mps 586 mmHg 73%
    07:00 +9°C° 0 mm 1 mps 587 mmHg 68%
    08:00 +12°C° 0 mm 1 mps 588 mmHg 58%
    09:00 +15°C° 0 mm 1 mps 589 mmHg 48%
    10:00 +18°C° 0 mm 1 mps 590 mmHg 38%
    11:00 +19°C° 0 mm 1 mps 591 mmHg 36%
    12:00 +19°C° 0 mm 2 mps 591 mmHg 34%
    13:00 +20°C° 0 mm 2 mps 591 mmHg 32%
    14:00 +19°C° 0 mm 2 mps 591 mmHg 34%
    15:00 +19°C° 0 mm 2 mps 591 mmHg 37%
    16:00 +19°C° 0 mm 2 mps 590 mmHg 39%
    17:00 +16°C° 0.1 mm 2 mps 589 mmHg 51%
    18:00 +14°C° 0.1 mm 2 mps 588 mmHg 62%
    19:00 +11°C° 0.1 mm 1 mps 587 mmHg 74%
    20:00 +10°C° 0 mm 1 mps 587 mmHg 78%
    21:00 +9°C° 0 mm 1 mps 587 mmHg 81%
    22:00 +8°C° 0 mm 1 mps 587 mmHg 85%
    23:00 +8°C° 0 mm 1 mps 587 mmHg 85%

    24 August, Thursday

    Time Temperature Precipitation Wind Pressure Humidity
    00:00 +8°C° 0 mm 1 mps 587 mmHg 86%
    01:00 +8°C° 0 mm 1 mps 586 mmHg 86%
    02:00 +8°C° 0 mm 1 mps 586 mmHg 86%
    03:00 +7°C° 0 mm 1 mps 586 mmHg 86%
    04:00 +7°C° 0 mm 1 mps 586 mmHg 86%
    05:00 +8°C° 0 mm 1 mps 587 mmHg 83%
    06:00 +9°C° 0 mm 1 mps 587 mmHg 79%
    07:00 +11°C° 0 mm 1 mps 588 mmHg 76%
    08:00 +12°C° 0 mm 1 mps 589 mmHg 68%
    09:00 +14°C° 0 mm 1 mps 590 mmHg 60%
    10:00 +16°C° 0 mm 2 mps 591 mmHg 51%
    11:00 +17°C° 0.1 mm 2 mps 591 mmHg 50%
    12:00 +18°C° 0.1 mm 2 mps 591 mmHg 49%
    13:00 +18°C° 0.1 mm 2 mps 591 mmHg 47%
    14:00 +18°C° 0.6 mm 2 mps 591 mmHg 50%
    15:00 +17°C° 0.6 mm 2 mps 590 mmHg 53%
    16:00 +17°C° 0.6 mm 2 mps 590 mmHg 56%
    17:00 +15°C° 0.6 mm 1 mps 589 mmHg 64%
    18:00 +13°C° 0.6 mm 1 mps 589 mmHg 73%
    19:00 +11°C° 0.6 mm 1 mps 588 mmHg 82%
    20:00 +11°C° 0.3 mm 1 mps 588 mmHg 84%
    21:00 +10°C° 0.3 mm 1 mps 588 mmHg 87%
    22:00 +9°C° 0.3 mm 1 mps 587 mmHg 89%
    23:00 +9°C° 0 mm 1 mps 587 mmHg 90%

    25 August, Friday

    Time Temperature Precipitation Wind Pressure Humidity
    00:00 +8°C° 0 mm 1 mps 587 mmHg 90%
    01:00 +8°C° 0 mm 1 mps 587 mmHg 90%
    02:00 +8°C° 0 mm 1 mps 587 mmHg 90%
    03:00 +8°C° 0 mm 1 mps 587 mmHg 89%
    04:00 +8°C° 0 mm 1 mps 587 mmHg 89%
    05:00 +9°C° 0 mm 1 mps 587 mmHg 86%
    06:00 +10°C° 0 mm 1 mps 588 mmHg 82%
    07:00 +11°C° 0 mm 1 mps 588 mmHg 79%
    08:00 +13°C° 0 mm 1 mps 589 mmHg 69%
    09:00 +15°C° 0 mm 1 mps 590 mmHg 59%
    10:00 +19°C° 0 mm 1 mps 591 mmHg 49%
    11:00 +19°C° 0 mm 1 mps 592 mmHg 47%
    12:00 +19°C° 0 mm 2 mps 592 mmHg 44%
    13:00 +20°C° 0 mm 2 mps 592 mmHg 42%
    14:00 +20°C° 0.2 mm 2 mps 592 mmHg 44%
    15:00 +19°C° 0.2 mm 2 mps 591 mmHg 47%
    16:00 +19°C° 0.2 mm 2 mps 591 mmHg 50%
    17:00 +18°C° 0.6 mm 1 mps 590 mmHg 60%
    18:00 +15°C° 0.6 mm 1 mps 589 mmHg 71%
    19:00 +12°C° 0.6 mm 1 mps 588 mmHg 81%
    20:00 +12°C° 0.5 mm 1 mps 588 mmHg 83%
    21:00 +11°C° 0.5 mm 1 mps 588 mmHg 85%
    22:00 +11°C° 0.5 mm 1 mps 588 mmHg 87%
    23:00 +10°C° 0.1 mm 1 mps 588 mmHg 87%
    Show more